Date String (YYYY-MM-DD hh:mm:ss) UTC,Instrument flags,Ambient pressure (hPa),Sample flow (lpm),Bypass flow (lpm),Sample temperature (°C),Ambient temperature (°C),ASC tube jacket temperature (°C),LED temperature (°C),Box temperature (°C),Sample RH (%),Span deviation,Mass concentration (μg/m³),Mass concentration (μg/m³),Mass concentration (μg/m³)
DateTimeUTC,F1_M11,P_M11,Q1_M11,Q2_M11,T1_M11,T2_M11,T3_M11,T4_M11,T5_M11,U1_M11,ZSPAN_M11,X0_M11,X2_M11,X1_M11
2021-09-23 04:00:00,,0829.9,5.00,0.00,29.6,28.3,00.0,38.8,31.4,10.2,0000.0,0012.45,0003.17,0001.50
2021-09-23 04:01:00,,0829.9,5.00,0.00,29.6,28.4,00.0,38.8,31.4,10.2,0000.0,0011.81,0003.19,0001.51
2021-09-23 04:02:00,,0829.9,4.98,0.00,29.6,28.5,00.0,38.8,31.4,10.2,0000.0,0011.11,0003.18,0001.52
2021-09-23 04:03:00,,0829.9,5.00,0.00,29.7,28.5,00.0,38.8,31.4,10.1,0000.0,0010.79,0003.15,0001.52
2021-09-23 04:04:00,,0829.9,5.00,0.00,29.7,28.6,00.0,38.8,31.5,10.1,0000.0,0010.45,0003.12,0001.53
2021-09-23 04:05:00,,0829.9,5.00,0.00,29.7,28.7,00.0,38.8,31.5,10.1,0000.0,0010.26,0003.07,0001.52
2021-09-23 04:06:00,,0829.8,5.00,0.00,29.7,28.7,00.0,38.8,31.5,10.0,0000.0,0009.98,0003.09,0001.52
2021-09-23 04:07:00,,0829.9,5.01,0.00,29.8,28.7,00.0,38.8,31.5,10.0,0000.0,0009.98,0003.04,0001.53
2021-09-23 04:08:00,,0829.8,5.00,0.00,29.8,28.8,00.0,38.8,31.5,10.0,0000.0,0009.91,0002.96,0001.53
2021-09-23 04:09:00,,0829.9,5.01,0.00,29.8,28.8,00.0,38.8,31.6,10.0,0000.0,0010.68,0003.05,0001.54
2021-09-23 04:10:00,,0829.8,5.00,0.00,29.8,28.9,00.0,38.8,31.6,10.0,0000.0,0012.46,0003.07,0001.56
2021-09-23 04:11:00,,0829.8,4.99,0.00,29.8,28.9,00.0,38.9,31.6,09.9,0000.0,0012.97,0003.03,0001.58
2021-09-23 04:12:00,,0829.8,5.00,0.00,29.9,28.9,00.0,38.9,31.6,09.9,0000.0,0012.61,0003.00,0001.59
2021-09-23 04:13:00,,0829.8,5.01,0.00,29.9,28.9,00.0,38.9,31.6,09.9,0000.0,0012.79,0003.08,0001.60
2021-09-23 04:14:00,,0829.8,5.00,0.00,29.9,28.9,00.0,38.9,31.7,09.8,0000.0,0013.06,0003.17,0001.62
2021-09-23 04:15:00,,0829.8,4.99,0.00,29.9,29.0,00.0,38.9,31.7,09.8,0000.0,0012.55,0003.19,0001.63
2021-09-23 04:16:00,,0829.8,5.00,0.00,29.9,29.0,00.0,38.9,31.7,09.8,0000.0,0013.07,0003.27,0001.65
2021-09-23 04:17:00,,0829.8,4.99,0.00,30.0,28.9,00.0,38.9,31.7,09.8,0000.0,0013.76,0003.35,0001.67
2021-09-23 04:18:00,,0829.8,5.01,0.00,30.0,29.0,00.0,39.0,31.8,09.7,0000.0,0013.73,0003.43,0001.68
2021-09-23 04:19:00,,0829.8,4.99,0.00,30.0,29.0,00.0,39.0,31.7,09.7,0000.0,0013.97,0003.43,0001.67
2021-09-23 04:20:00,,0829.8,5.00,0.00,30.0,29.0,00.0,39.0,31.7,09.7,0000.0,0014.84,0003.42,0001.66
2021-09-23 04:21:00,,0829.8,5.00,0.00,30.0,29.1,00.0,39.0,31.8,09.7,0000.0,0014.73,0003.48,0001.65
2021-09-23 04:22:00,,0829.8,5.00,0.00,30.0,29.1,00.0,39.0,31.8,09.8,0000.0,0014.09,0003.48,0001.65
2021-09-23 04:23:00,,0829.8,5.00,0.00,30.1,29.1,00.0,39.0,31.8,09.8,0000.0,0013.96,0003.49,0001.65
2021-09-23 04:24:00,,0829.7,4.99,0.00,30.1,29.1,00.0,39.1,31.8,09.8,0000.0,0013.91,0003.50,0001.67
2021-09-23 04:25:00,,0829.7,5.00,0.00,30.1,29.0,00.0,39.1,31.8,09.8,0000.0,0013.85,0003.43,0001.67
2021-09-23 04:26:00,,0829.6,5.01,0.00,30.1,29.0,00.0,39.1,31.8,09.8,0000.0,0014.09,0003.41,0001.67
2021-09-23 04:27:00,,0829.6,5.00,0.00,30.1,29.0,00.0,39.1,31.7,09.8,0000.0,0014.03,0003.39,0001.66
2021-09-23 04:28:00,,0829.6,5.00,0.00,30.1,29.1,00.0,39.1,31.8,09.8,0000.0,0013.48,0003.32,0001.67
2021-09-23 04:29:00,,0829.7,4.99,0.00,30.1,29.1,00.0,39.1,31.9,09.7,0000.0,0013.23,0003.24,0001.67
2021-09-23 04:30:00,,0829.7,5.02,0.00,30.1,29.1,00.0,39.2,31.9,09.7,0000.0,0013.42,0003.24,0001.67
2021-09-23 04:31:00,,0829.6,4.99,0.00,30.1,29.1,00.0,39.2,31.9,09.8,0000.0,0011.85,0003.19,0001.68
2021-09-23 04:32:00,,0829.6,5.00,0.00,30.1,29.1,00.0,39.2,31.9,09.7,0000.0,0010.53,0003.08,0001.69
2021-09-23 04:33:00,,0829.5,5.02,0.00,30.2,29.1,00.0,39.2,31.9,09.7,0000.0,0011.07,0003.05,0001.69
2021-09-23 04:34:00,,0829.6,4.99,0.00,30.2,29.1,00.0,39.2,31.9,09.7,0000.0,0011.62,0003.10,0001.68
2021-09-23 04:35:00,,0829.6,5.00,0.00,30.2,28.6,00.0,39.2,31.8,09.7,0000.0,0011.51,0003.06,0001.67
2021-09-23 04:36:00,,0829.6,4.99,0.00,30.0,26.5,00.0,39.2,31.2,09.8,0000.0,0011.05,0003.03,0001.68
2021-09-23 04:37:00,,0829.5,5.01,0.00,29.9,26.0,00.0,39.1,31.1,09.9,0000.0,0010.78,0003.03,0001.67
2021-09-23 04:38:00,,0829.6,5.01,0.00,29.8,26.4,00.0,39.1,31.1,09.9,0000.0,0011.03,0003.10,0001.67
2021-09-23 04:39:00,,0829.6,5.00,0.00,29.7,26.8,00.0,39.0,31.2,10.0,0000.0,0010.70,0003.14,0001.67
2021-09-23 04:40:00,,0829.5,5.00,0.00,29.7,27.2,00.0,39.0,31.2,10.0,0000.0,0010.95,0003.16,0001.66
2021-09-23 04:41:00,,0829.5,4.99,0.00,29.6,27.5,00.0,38.9,31.2,10.0,0000.0,0010.39,0003.14,0001.68
2021-09-23 04:42:00,,0829.5,5.01,0.00,29.6,27.7,00.0,38.9,31.3,10.0,0000.0,0010.58,0003.15,0001.69
2021-09-23 04:43:00,,0829.5,4.99,0.00,29.6,27.9,00.0,38.9,31.3,09.9,0000.0,0010.20,0003.15,0001.70
2021-09-23 04:44:00,,0829.5,5.01,0.00,29.7,28.1,00.0,38.9,31.3,09.9,0000.0,0009.65,0003.15,0001.72
2021-09-23 04:45:00,,0829.5,5.00,0.00,29.7,28.2,00.0,38.9,31.4,10.0,0000.0,0009.10,0003.08,0001.74
2021-09-23 04:46:00,,0829.5,5.01,0.00,29.7,28.3,00.0,38.9,31.4,09.9,0000.0,0009.16,0003.03,0001.73
2021-09-23 04:47:00,,0829.5,5.01,0.00,29.7,28.4,00.0,38.9,31.4,09.9,0000.0,0009.18,0003.03,0001.73
2021-09-23 04:48:00,,0829.5,5.00,0.00,29.7,28.5,00.0,38.9,31.5,09.9,0000.0,0009.07,0002.97,0001.73
2021-09-23 04:49:00,,0829.5,4.99,0.00,29.7,28.6,00.0,38.9,31.5,09.9,0000.0,0008.00,0002.85,0001.74
2021-09-23 04:50:00,,0829.5,5.01,0.00,29.8,28.6,00.0,38.9,31.5,09.9,0000.0,0007.54,0002.80,0001.74
2021-09-23 04:51:00,,0829.5,4.99,0.00,29.8,28.6,00.0,38.9,31.5,09.9,0000.0,0007.17,0002.70,0001.75
2021-09-23 04:52:00,,0829.4,5.00,0.00,29.8,28.6,00.0,38.9,31.5,09.9,0000.0,0007.34,0002.68,0001.75
2021-09-23 04:53:00,,0829.4,5.00,0.00,29.8,28.7,00.0,38.9,31.5,09.9,0000.0,0007.68,0002.65,0001.73
2021-09-23 04:54:00,,0829.4,5.01,0.00,29.8,28.7,00.0,38.9,31.5,09.9,0000.0,0007.87,0002.65,0001.72
2021-09-23 04:55:00,,0829.4,4.99,0.00,29.8,28.8,00.0,38.9,31.6,09.9,0000.0,0008.07,0002.62,0001.70
2021-09-23 04:56:00,,0829.4,5.02,0.00,29.8,28.8,00.0,38.9,31.6,09.9,0000.0,0007.89,0002.65,0001.70
2021-09-23 04:57:00,,0829.3,4.99,0.00,29.9,28.8,00.0,38.9,31.6,09.9,0000.0,0007.78,0002.67,0001.71
2021-09-23 04:58:00,,0829.4,5.00,0.00,29.9,28.8,00.0,38.9,31.6,09.9,0000.0,0007.75,0002.68,0001.72
2021-09-23 04:59:00,,0829.3,5.00,0.00,29.9,28.8,00.0,38.9,31.6,09.9,0000.0,0008.13,0002.67,0001.73
